Location: Kalberh�ni
(46.4610°N, 7.2453°E)
Time: 21:42:39
(UTC+00:00)

USA 229 - Pass Details

Date: 24 October 2021
Orbit: 946 x 1266 km, 63.4° (Epoch: 25 November)

Event Time Altitude Azimuth Distance (km) Brightness Sun altitude
Rises 21:08:12 0° 279° (W) 3,730 7.1 -46.4°
Reaches altitude 10° 21:11:25 10° 295° (WNW) 2,829 6.4 -46.8°
Enters shadow 21:14:27 20° 321° (NW) 2,253 5.8 -47.2°
